Location: Aalen
(48.8330°N, 10.1000°E)
Time: 19:00:28
(UTC+02:00)

Transit 4A - Pass Details

Date: 05 August 2021
Orbit: 871 x 974 km, 66.8° (Epoch: 16 September)

Event Time Altitude Azimuth Distance (km) Brightness Sun altitude
Rises 01:07:19 0° 224° (SW) 3,483 - -24.1°
Reaches altitude 10° 01:09:51 10° 227° (SW) 2,536 - -24.1°
Exits shadow 01:13:05 34° 239° (WSW) 1,420 8.6 -24.1°
Maximum altitude 01:15:39 65° 309° (NW) 961 8.0 -24.2°
Drops below altitude 10° 01:21:27 10° 32° (NNE) 2,528 10.9 -24.2°
Sets 01:23:58 0° 35° (NE) 3,471 11.7 -24.2°
